User: anonymous   Login
Location: Newark
(48.1500°N, 13.1167°E)
Time: 23:37:30
(UTC+00:00)
Language:

ISS - Orbit

View from above orbital plane
View from above orbital plane
View from above satellite
View from above satellite

Ground track
Ground track

The orbit data is extracted from the following two-line orbital elements,

1 25544U 98067A   21291.87209078  .00003467  00000-0  71718-4 0  9994
2 25544  51.6433  91.1519 0004174 122.0955  26.9642 15.48731339307766
Epoch (UTC): 18 October 2021 20:55:48
Eccentricity: 0.0004174
inclination: 51.6433°
perigee height: 417 km
apogee height: 423 km
right ascension of ascending node: 91.1519°
argument of perigee: 122.0955°
revolutions per day: 15.48731339
mean anomaly at epoch: 26.9642°
orbit number at epoch: 30776

The dashed part of the orbit path shows where the satellite is in the earth's shadow,  

DLR